Weather History for KDLS - April, 2014

Change the Weather History Date:

Tuesday, April 8, 2014

  Actual Average Record
Temperature  
Mean Temperature 62 °F -  
Max Temperature 75 °F 62 °F 80 °F (1985)
Min Temperature 50 °F 39 °F 27 °F (1952)
Degree Days  
Heating Degree Days 2    
Growing Degree Days 12 (Base 50)    
Moisture  
Dew Point 47 °F    
Average Humidity 61    
Maximum Humidity 83    
Minimum Humidity 31    
Precipitation  
Precipitation 0.00 in - - ()
Sea Level Pressure  
Sea Level Pressure 30.07 in    
Wind  
Wind Speed 10 mph (NW)    
Max Wind Speed 25 mph    
Max Gust Speed 37 mph    
Visibility 10 miles    
Events      
Averages and records for this station are not official NWS values.
T = Trace of Precipitation, MM = Missing Value Source: NWS Daily Summary

Daily Weather History Graph

Daily Weather History Graph

Search for Another Location

Airport or City:

Trip Planner

Search our weather history database for the weather conditions in past years. The results will help you decide how hot, cold, wet, or windy it might be!

Date:

Astronomy

Apr. 08, 2014 Rise Set
Actual Time 6:31 AM PDT 7:42 PM PDT
Civil Twilight 6:01 AM PDT 8:12 PM PDT
Nautical Twilight 5:24 AM PDT 8:49 PM PDT
Astronomical Twilight 4:45 AM PDT 9:28 PM PDT
Moon 1:23 PM PDT (4/8) 3:05 AM PDT (4/8)
Length of Visible Light 14h 11m
Length of Day
13h 10m
Waxing Gibbous, 63% of the Moon is Illuminated
Apr 8
Waxing Gibbous
Apr 15
Full
Apr 22
Last Quarter
Apr 28
New
May 6
First Quarter

Hourly Weather History & Observations

Time (PDT) Temp. Dew Point Humidity Pressure Visibility Wind Dir Wind Speed Gust Speed Precip Events Conditions
12:53 AM 57.9 °F 46.0 °F 65% 30.11 in 10.0 mi West 3.5 mph - N/A   Clear
1:53 AM 57.0 °F 46.9 °F 69% 30.11 in 10.0 mi NW 10.4 mph - N/A   Clear
2:53 AM 55.0 °F 46.9 °F 74% 30.11 in 10.0 mi North 8.1 mph - N/A   Clear
3:53 AM 55.0 °F 46.9 °F 74% 30.12 in 10.0 mi NNW 9.2 mph - N/A   Clear
4:53 AM 50.0 °F 45.0 °F 83% 30.12 in 10.0 mi SSE 5.8 mph - N/A   Clear
5:53 AM 52.0 °F 45.0 °F 77% 30.13 in 10.0 mi Variable 3.5 mph - N/A   Clear
6:53 AM 53.1 °F 46.0 °F 77% 30.13 in 10.0 mi Calm Calm - N/A   Clear
7:53 AM 55.0 °F 48.0 °F 77% 30.14 in 10.0 mi NNW 11.5 mph 16.1 mph N/A   Clear
8:53 AM 57.9 °F 48.9 °F 72% 30.15 in 10.0 mi NNW 5.8 mph - N/A   Clear
9:53 AM 61.0 °F 50.0 °F 67% 30.13 in 10.0 mi NNW 8.1 mph - N/A   Clear
10:53 AM 64.0 °F 48.9 °F 58% 30.12 in 10.0 mi NNW 8.1 mph - N/A   Clear
11:53 AM 68.0 °F 48.0 °F 49% 30.10 in 10.0 mi NW 11.5 mph - N/A   Clear
12:53 PM 70.0 °F 46.9 °F 44% 30.06 in 10.0 mi NW 11.5 mph - N/A   Clear
1:53 PM 73.0 °F 46.0 °F 38% 30.04 in 10.0 mi NNW 8.1 mph - N/A   Clear
2:53 PM 75.0 °F 43.0 °F 32% 30.01 in 10.0 mi WNW 16.1 mph - N/A   Clear
3:53 PM 75.9 °F 43.0 °F 31% 29.97 in 10.0 mi WNW 24.2 mph 28.8 mph N/A   Clear
4:53 PM 73.0 °F 44.1 °F 35% 29.99 in 10.0 mi NW 21.9 mph - N/A   Clear
5:53 PM 69.1 °F 44.1 °F 40% 29.98 in 10.0 mi NW 25.3 mph 36.8 mph N/A   Partly Cloudy
6:53 PM 68.0 °F 44.1 °F 42% 29.99 in 10.0 mi NNW 18.4 mph 23.0 mph N/A   Clear
7:53 PM 63.0 °F 48.0 °F 58% 29.99 in 10.0 mi NW 18.4 mph 31.1 mph N/A   Clear
8:53 PM 61.0 °F 50.0 °F 67% 30.01 in 10.0 mi NW 19.6 mph 32.2 mph N/A   Clear
9:53 PM 60.1 °F 51.1 °F 72% 30.03 in 10.0 mi WNW 18.4 mph 23.0 mph N/A   Scattered Clouds
10:53 PM 57.0 °F 50.0 °F 77% 30.05 in 10.0 mi WNW 17.3 mph 21.9 mph 0.00 in   Overcast
11:53 PM 57.0 °F 48.9 °F 74% 30.07 in 10.0 mi West 17.3 mph - 0.00 in   Overcast